Terug naar catalogus

STARLINK-35573

ActiefCommunicatieVLEO
NORAD 66116·PAYLOAD·🇺🇸 United States

Gelanceerd Oct 22, 2025 vanaf Vandenberg Space Force Base

Loading…

Volgende Passages (komende 24 uur)

TLE

VersSource: CelesTrak SupGP

Epoch: Sep 15, 2026, 04:00 UTC

1 66116C 25237C   26258.16715278 -.00050040  00000+0 -14786-2 0  2585
2 66116  53.1574 236.4883 0001523 103.5604 239.6806 15.34412547    12

Volg STARLINK-35573 in realtime met AllMySat

Download on the App Store